Crossville, TN

4:24 AM CDT on May 25, 2017 (GMT -0500)
Crossville Memorial-Whitson

Weather History for KCSV - September, 2014

Change the Weather History Date:

Sunday, September 7, 2014

  Actual Average Record
Temperature  
Mean Temperature 72 °F 70 °F  
Max Temperature 77 °F 80 °F 95 °F (1954)
Min Temperature 67 °F 60 °F 45 °F (1988)
Degree Days  
Heating Degree Days 0    
Month to date heating degree days 0  
Since 1 July heating degree days 1  
Cooling Degree Days 7    
Month to date cooling degree days 73  
Year to date cooling degree days 907  
Growing Degree Days 23 (Base 50)    
Moisture  
Dew Point 65 °F    
Average Humidity 82    
Maximum Humidity 90    
Minimum Humidity 74    
Precipitation  
Precipitation 0.00 in 0.12 in 2.92 in (2009)
Month to date precipitation 1.78 0.84  
Year to date precipitation 33.51 38.96  
Sea Level Pressure  
Sea Level Pressure 30.09 in    
Wind  
Wind Speed 7 mph (NE)    
Max Wind Speed 13 mph    
Max Gust Speed 19 mph    
Visibility 5 miles    
Events      
T = Trace of Precipitation, MM = Missing Value Source: NWS Daily Summary

Daily Weather History Graph

Daily Weather History Graph

Search for Another Location

Airport or City:

Trip Planner

Search our weather history database for the weather conditions in past years. The results will help you decide how hot, cold, wet, or windy it might be!

Date:

Astronomy

Sep. 07, 2014 Rise Set
Actual Time 6:16 AM CDT 6:59 PM CDT
Civil Twilight 5:50 AM CDT 7:25 PM CDT
Nautical Twilight 5:20 AM CDT 7:55 PM CDT
Astronomical Twilight 4:48 AM CDT 8:26 PM CDT
Moon 5:57 PM CDT (9/7) 4:30 AM CDT (9/7)
Length of Visible Light 13h 34m
Length of Day
12h 42m
Waxing Gibbous, 97% of the Moon is Illuminated
Sep 7
Waxing Gibbous
Sep 8
Full
Sep 15
Last Quarter
Sep 24
New
Oct 1
First Quarter

Hourly Weather History & Observations

Time (CDT) Temp. Heat Index Dew Point Humidity Pressure Visibility Wind Dir Wind Speed Gust Speed Precip Events Conditions
12:25 AM 71.1 °F - 66.9 °F 87% 30.10 in 6.0 mi North 5.8 mph - N/A   Mostly Cloudy
12:35 AM 71.1 °F - 66.9 °F 87% 30.10 in 6.0 mi North 5.8 mph - N/A   Mostly Cloudy
12:53 AM 71.1 °F - 66.9 °F 87% 30.03 in 6.0 mi North 5.8 mph - N/A   Overcast
1:19 AM 73.0 °F - 68.0 °F 84% 30.09 in 5.0 mi NE 5.8 mph - N/A   Haze
1:53 AM 72.0 °F - 68.0 °F 87% 30.03 in 3.0 mi NNE 6.9 mph - N/A   Overcast
2:33 AM 73.0 °F - 68.0 °F 84% 30.09 in 2.0 mi NNE 6.9 mph - N/A   Haze
2:53 AM 73.0 °F - 68.0 °F 84% 30.02 in 2.5 mi NNE 6.9 mph - N/A   Haze
3:00 AM 73.9 °F - 68.0 °F 82% 30.09 in 3.0 mi NNE 10.4 mph - N/A   Haze
3:53 AM 73.0 °F - 66.9 °F 81% 30.02 in 4.0 mi NNE 5.8 mph - N/A   Haze
4:53 AM 73.0 °F - 66.9 °F 81% 30.04 in 4.0 mi NE 5.8 mph - N/A   Haze
5:33 AM 80.1 °F 82.1 °F 66.0 °F 62% 30.10 in 7.0 mi NE 6.9 mph - N/A   Overcast
5:53 AM 79.0 °F - 66.0 °F 64% 30.05 in 7.0 mi NNE 4.6 mph - N/A   Overcast
6:53 AM 73.0 °F - 66.0 °F 79% 30.06 in 5.0 mi NE 5.8 mph - N/A   Haze
7:20 AM 73.0 °F - 66.0 °F 79% 30.13 in 5.0 mi NE 8.1 mph - N/A   Haze
7:53 AM 73.0 °F - 66.0 °F 79% 30.07 in 6.0 mi NNE 6.9 mph - N/A   Haze
8:16 AM 72.0 °F - 66.0 °F 81% 30.13 in 6.0 mi NE 6.9 mph - N/A   Haze
8:53 AM 73.0 °F - 66.0 °F 79% 30.07 in 7.0 mi NNE 5.8 mph - N/A   Overcast
9:53 AM 73.0 °F - 66.0 °F 79% 30.09 in 8.0 mi NE 8.1 mph - N/A   Overcast
10:53 AM 73.9 °F - 66.9 °F 79% 30.09 in 10.0 mi NE 4.6 mph - N/A   Overcast
11:21 AM 73.9 °F - 66.9 °F 79% 30.14 in 10.0 mi North 4.6 mph - N/A   Overcast
11:53 AM 75.0 °F - 66.9 °F 76% 30.09 in 10.0 mi Variable 3.5 mph - N/A   Mostly Cloudy
12:02 PM 75.0 °F - 66.9 °F 76% 30.14 in 10.0 mi NNW 4.6 mph - N/A   Scattered Clouds
12:17 PM 75.0 °F - 66.9 °F 76% 30.14 in 10.0 mi NNE 6.9 mph - N/A   Mostly Cloudy
12:46 PM 75.0 °F - 66.9 °F 76% 30.13 in 10.0 mi NNE 6.9 mph - N/A   Scattered Clouds
12:53 PM 75.0 °F - 68.0 °F 79% 30.07 in 10.0 mi NNE 6.9 mph - N/A   Scattered Clouds
2:53 PM 75.9 °F - 66.9 °F 74% 30.02 in 10.0 mi NNE 8.1 mph - N/A   Partly Cloudy
4:49 PM 73.4 °F - 66.2 °F 78% 30.09 in 10.0 mi NNE 11.5 mph - N/A   Mostly Cloudy
4:53 PM 72.0 °F - 66.0 °F 81% 30.03 in 10.0 mi North 10.4 mph - N/A   Mostly Cloudy
5:11 PM 71.1 °F - 66.0 °F 84% 30.09 in 10.0 mi North 8.1 mph - N/A   Overcast
5:28 PM 70.0 °F - 64.9 °F 84% 30.09 in 10.0 mi NNE 6.9 mph - N/A   Overcast
5:53 PM 69.1 °F - 64.9 °F 87% 30.03 in 8.0 mi NNE 6.9 mph - N/A   Overcast
6:44 PM 69.1 °F - 64.9 °F 87% 30.09 in 5.0 mi NNE 6.9 mph - N/A   Overcast
6:53 PM 69.1 °F - 64.0 °F 84% 30.04 in 6.0 mi NE 9.2 mph - N/A   Haze
7:53 PM 69.1 °F - 64.0 °F 84% 30.06 in 5.0 mi NE 6.9 mph - N/A   Haze
8:48 PM 69.8 °F - 62.6 °F 78% 30.12 in 2.0 mi NE 8.1 mph - N/A   Haze
8:53 PM 70.0 °F - 63.0 °F 78% 30.06 in 2.0 mi NE 8.1 mph - N/A   Haze
9:13 PM 71.1 °F - 63.0 °F 75% 30.12 in 1.8 mi NE 8.1 mph - N/A   Haze
9:17 PM 71.1 °F - 63.0 °F 75% 30.12 in 3.0 mi NE 5.8 mph - N/A   Haze
9:27 PM 71.1 °F - 63.0 °F 75% 30.12 in 1.8 mi NE 5.8 mph - N/A   Haze
9:46 PM 70.0 °F - 63.0 °F 78% 30.12 in 3.0 mi ENE 6.9 mph - N/A   Haze
10:00 PM 70.0 °F - 63.0 °F 78% 30.12 in 1.8 mi NE 5.8 mph - N/A   Haze
10:40 PM 68.0 °F - 63.0 °F 84% 30.12 in 0.8 mi NE 8.1 mph - N/A   Haze
10:49 PM 68.0 °F - 62.6 °F 83% 30.12 in 0.5 mi NE 5.8 mph - N/A   Haze
11:08 PM 66.9 °F - 63.0 °F 87% 30.12 in 1.0 mi East 6.9 mph - N/A   Mist
11:33 PM 66.9 °F - 63.0 °F 87% 30.12 in 0.8 mi NE 5.8 mph - N/A   Overcast
11:41 PM 66.9 °F - 63.0 °F 87% 30.11 in 1.0 mi NE 6.9 mph - N/A   Overcast
11:49 PM 66.2 °F - 62.6 °F 88% 30.11 in 0.8 mi ENE 4.6 mph - N/A   Mist
11:53 PM 66.9 °F - 63.0 °F 87% 30.06 in 0.8 mi ENE 4.6 mph - N/A   Mist